Date String (YYYY-MM-DD hh:mm:ss) UTC,Instrument flags,absolute air pressure of the measurement (hPa),sample flow rate (lpm),inlet stack bypass flow (lpm),air temperature of the measurement (°C),ambient temperature measured by the external sensor (°C),aerosol sample conditioner tube jacket temperature (°C),OPC LED temperature (°C),internal box temperature (°C),relative humidity of the measurement (%),span deviation,mass concentration of particles derived from Lorenz-Mie calculation of OPC scattering (μg/m³),mass concentration of particles derived from Lorenz-Mie calculation of OPC scattering (μg/m³),mass concentration of particles derived from Lorenz-Mie calculation of OPC scattering (μg/m³)
DateTimeUTC,F1_M11,P_M11,Q1_M11,Q2_M11,T1_M11,T2_M11,T3_M11,T4_M11,T5_M11,U1_M11,ZSPAN_M11,X2_M11,X0_M11,X1_M11
2024-02-27 19:00:00,SystemResetWarning,0818.0,5.01,000.00,018.2,017.4,000.0,026.9,020.0,16.7,0000.0,0002.42,0007.67,0001.60
2024-02-27 19:01:00,SystemResetWarning,0818.0,5.01,000.00,018.2,017.4,000.0,026.9,020.0,16.5,0000.0,0002.43,0007.85,0001.60
2024-02-27 19:02:00,SystemResetWarning,0818.0,5.01,000.00,018.2,017.4,000.0,026.9,020.0,16.6,0000.0,0002.46,0007.89,0001.60
2024-02-27 19:03:00,SystemResetWarning,0818.0,4.97,000.00,018.2,017.4,000.0,026.9,020.0,16.9,0000.0,0002.47,0008.05,0001.59
2024-02-27 19:04:00,SystemResetWarning,0818.0,5.00,000.00,018.2,017.4,000.0,026.9,020.0,16.8,0000.0,0002.52,0008.12,0001.58
2024-02-27 19:05:00,SystemResetWarning,0817.9,5.00,000.00,018.2,017.4,000.0,026.9,020.0,16.7,0000.0,0002.51,0007.58,0001.57
2024-02-27 19:06:00,SystemResetWarning,0818.0,5.00,000.00,018.2,017.4,000.0,026.9,020.0,16.7,0000.0,0002.47,0007.46,0001.59
2024-02-27 19:07:00,SystemResetWarning,0818.0,5.00,000.00,018.2,017.4,000.0,026.9,020.0,17.2,0000.0,0002.46,0007.52,0001.61
2024-02-27 19:08:00,SystemResetWarning,0818.0,4.99,000.00,018.2,017.4,000.0,026.9,020.0,17.3,0000.0,0002.50,0007.99,0001.63
2024-02-27 19:09:00,SystemResetWarning,0818.2,4.99,000.00,018.2,017.4,000.0,026.9,020.0,17.2,0000.0,0002.52,0008.40,0001.64
2024-02-27 19:10:00,SystemResetWarning,0818.2,5.01,000.00,018.2,017.6,000.0,027.0,020.1,17.4,0000.0,0002.61,0009.02,0001.67
2024-02-27 19:11:00,SystemResetWarning,0818.4,5.02,000.00,018.4,018.4,000.0,027.0,020.6,17.1,0000.0,0002.59,0008.94,0001.72
2024-02-27 19:12:00,SystemResetWarning,0818.4,4.98,000.00,018.6,018.9,000.0,027.0,020.9,16.9,0000.0,0002.65,0008.96,0001.76
2024-02-27 19:13:00,SystemResetWarning,0818.5,4.99,000.00,018.6,018.8,000.0,027.0,020.7,16.8,0000.0,0002.69,0009.67,0001.81
2024-02-27 19:14:00,SystemResetWarning,0818.5,5.01,000.00,018.6,018.6,000.0,026.9,020.5,16.7,0000.0,0002.72,0009.76,0001.86
2024-02-27 19:15:00,SystemResetWarning,0818.4,5.01,000.00,018.6,018.3,000.0,026.9,020.3,16.9,0000.0,0002.71,0009.95,0001.90
2024-02-27 19:16:00,SystemResetWarning,0818.4,5.01,000.00,018.5,018.2,000.0,026.9,020.2,17.2,0000.0,0002.79,0010.23,0001.98
2024-02-27 19:17:00,SystemResetWarning,0818.4,4.99,000.00,018.5,018.0,000.0,026.9,020.1,17.3,0000.0,0002.94,0010.62,0002.06
2024-02-27 19:18:00,SystemResetWarning,0818.5,5.00,000.00,018.4,017.9,000.0,026.9,020.1,17.2,0000.0,0003.02,0010.75,0002.11
2024-02-27 19:19:00,SystemResetWarning,0818.4,5.00,000.00,018.4,017.8,000.0,026.9,020.0,17.4,0000.0,0003.06,0010.30,0002.14
2024-02-27 19:20:00,SystemResetWarning,0818.4,4.99,000.00,018.3,017.7,000.0,026.9,020.0,17.2,0000.0,0003.08,0009.81,0002.17
2024-02-27 19:21:00,SystemResetWarning,0818.4,5.01,000.00,018.3,017.6,000.0,026.9,020.0,17.2,0000.0,0003.07,0009.49,0002.18
2024-02-27 19:22:00,SystemResetWarning,0818.4,5.02,000.00,018.3,017.5,000.0,026.9,020.0,17.4,0000.0,0003.12,0009.48,0002.21
2024-02-27 19:23:00,SystemResetWarning,0818.4,4.99,000.00,018.3,017.5,000.0,027.0,020.0,17.8,0000.0,0003.15,0010.13,0002.23
2024-02-27 19:24:00,SystemResetWarning,0818.4,4.99,000.00,018.2,017.4,000.0,027.0,020.0,17.6,0000.0,0003.18,0009.50,0002.26
2024-02-27 19:25:00,SystemResetWarning,0818.3,4.99,000.00,018.2,017.4,000.0,027.0,020.0,17.6,0000.0,0003.18,0009.04,0002.27
2024-02-27 19:26:00,SystemResetWarning,0818.3,5.01,000.00,018.2,017.3,000.0,027.0,020.0,17.6,0000.0,0003.19,0008.79,0002.29
2024-02-27 19:27:00,SystemResetWarning,0818.3,5.00,000.00,018.2,017.3,000.0,027.0,020.0,17.6,0000.0,0003.19,0008.52,0002.28
2024-02-27 19:28:00,SystemResetWarning,0818.3,5.01,000.00,018.3,017.8,000.0,027.0,020.3,17.5,0000.0,0003.16,0008.38,0002.27
2024-02-27 19:29:00,SystemResetWarning,0818.4,5.00,000.00,018.5,018.7,000.0,027.1,020.8,17.3,0000.0,0003.16,0008.50,0002.27
2024-02-27 19:30:00,SystemResetWarning,0818.3,4.99,000.00,018.7,018.9,000.0,027.1,020.8,17.3,0000.0,0003.23,0008.28,0002.32
2024-02-27 19:31:00,SystemResetWarning,0818.1,4.99,000.00,018.7,018.7,000.0,027.0,020.7,17.5,0000.0,0003.30,0008.15,0002.38
2024-02-27 19:32:00,SystemResetWarning,0818.0,5.00,000.00,018.7,018.5,000.0,027.0,020.5,17.8,0000.0,0003.36,0008.03,0002.44
2024-02-27 19:33:00,SystemResetWarning,0818.0,5.01,000.00,018.6,018.4,000.0,027.0,020.3,17.6,0000.0,0003.35,0007.99,0002.48
2024-02-27 19:34:00,SystemResetWarning,0818.0,5.01,000.00,018.5,018.2,000.0,027.0,020.2,17.2,0000.0,0003.34,0007.13,0002.51
2024-02-27 19:35:00,SystemResetWarning,0818.0,5.00,000.00,018.5,018.0,000.0,026.9,020.1,17.3,0000.0,0003.37,0007.04,0002.56
2024-02-27 19:36:00,SystemResetWarning,0818.0,4.99,000.00,018.5,017.9,000.0,026.9,020.0,18.0,0000.0,0003.45,0007.36,0002.63
2024-02-27 19:37:00,SystemResetWarning,0818.0,4.99,000.00,018.4,017.8,000.0,026.9,020.0,18.3,0000.0,0003.52,0007.52,0002.70
2024-02-27 19:38:00,SystemResetWarning,0818.0,5.00,000.00,018.4,017.8,000.0,026.9,020.0,18.5,0000.0,0003.54,0007.50,0002.76
2024-02-27 19:39:00,SystemResetWarning,0818.0,5.01,000.00,018.4,017.7,000.0,026.9,020.0,19.3,0000.0,0003.56,0007.32,0002.79
2024-02-27 19:40:00,SystemResetWarning,0818.0,5.01,000.00,018.3,017.6,000.0,026.9,020.0,18.3,0000.0,0003.57,0007.10,0002.83
2024-02-27 19:41:00,SystemResetWarning,0818.0,5.00,000.00,018.3,017.6,000.0,027.0,020.0,17.5,0000.0,0003.57,0007.06,0002.86
2024-02-27 19:42:00,SystemResetWarning,0817.9,5.00,000.00,018.3,017.6,000.0,027.0,020.0,17.5,0000.0,0003.55,0007.25,0002.88
2024-02-27 19:43:00,SystemResetWarning,0818.0,4.99,000.00,018.3,017.5,000.0,027.0,020.0,17.4,0000.0,0003.54,0008.51,0002.87
2024-02-27 19:44:00,SystemResetWarning,0818.0,4.99,000.00,018.3,017.5,000.0,027.0,020.0,17.4,0000.0,0003.59,0008.76,0002.90
2024-02-27 19:45:00,SystemResetWarning,0818.0,4.99,000.00,018.3,017.5,000.0,027.0,020.0,17.9,0000.0,0003.60,0008.77,0002.93
2024-02-27 19:46:00,SystemResetWarning,0817.9,5.00,000.00,018.3,017.5,000.0,026.9,020.0,18.0,0000.0,0003.59,0008.88,0002.93
2024-02-27 19:47:00,SystemResetWarning,0817.8,5.01,000.00,018.3,017.5,000.0,026.9,020.0,18.1,0000.0,0003.56,0009.63,0002.93
2024-02-27 19:48:00,SystemResetWarning,0817.8,5.00,000.00,018.3,017.5,000.0,026.9,020.0,18.7,0000.0,0003.52,0010.24,0002.91
2024-02-27 19:49:00,SystemResetWarning,0817.8,5.00,000.00,018.2,017.5,000.0,026.9,020.0,19.8,0000.0,0003.52,0010.41,0002.89
2024-02-27 19:50:00,SystemResetWarning,0817.8,4.99,000.00,018.2,017.5,000.0,026.9,020.0,18.8,0000.0,0003.51,0010.40,0002.89
2024-02-27 19:51:00,SystemResetWarning,0817.8,4.99,000.00,018.2,017.5,000.0,026.9,020.0,18.1,0000.0,0003.51,0010.28,0002.90
2024-02-27 19:52:00,SystemResetWarning,0817.8,5.00,000.00,018.2,017.5,000.0,026.9,020.0,18.5,0000.0,0003.48,0010.20,0002.90
2024-02-27 19:53:00,SystemResetWarning,0817.8,5.00,000.00,018.2,017.5,000.0,026.9,020.0,17.8,0000.0,0003.46,0010.21,0002.90
2024-02-27 19:54:00,SystemResetWarning,0817.7,5.00,000.00,018.2,017.5,000.0,026.9,020.0,18.2,0000.0,0003.44,0009.06,0002.90
2024-02-27 19:55:00,SystemResetWarning,0817.7,5.01,000.00,018.2,017.5,000.0,026.9,020.0,18.2,0000.0,0003.40,0008.62,0002.90
2024-02-27 19:56:00,SystemResetWarning,0817.6,5.00,000.00,018.2,017.5,000.0,026.9,020.0,18.3,0000.0,0003.41,0008.61,0002.89
2024-02-27 19:57:00,SystemResetWarning,0817.6,5.00,000.00,018.2,017.5,000.0,026.9,020.0,18.0,0000.0,0003.41,0008.61,0002.87
2024-02-27 19:58:00,SystemResetWarning,0817.7,5.00,000.00,018.2,017.5,000.0,026.9,020.0,17.9,0000.0,0003.42,0007.96,0002.86
2024-02-27 19:59:00,SystemResetWarning,0817.8,5.00,000.00,018.2,017.5,000.0,026.9,020.0,18.1,0000.0,0003.42,0007.06,0002.84
